Weather History for Dubuque, IA

Change the Weather History Date:

Monday, February 18, 2013

  Actual Average Record
Temperature  
Mean Temperature 32 °F 25 °F  
Max Temperature 49 °F 32 °F 61 °F (1981)
Min Temperature 14 °F 17 °F -18 °F (2006)
Degree Days  
Heating Degree Days 33 40  
Month to date heating degree days 767 772  
Since 1 July heating degree days 4816 5009  
Cooling Degree Days 0 0  
Month to date cooling degree days 0 0  
Year to date cooling degree days 0 0  
Moisture  
Dew Point 26 °F    
Average Humidity 83    
Maximum Humidity 100    
Minimum Humidity 65    
Precipitation  
Precipitation 0.04 in 0.05 in 0.78 in (1908)
Month to date precipitation 0.88 0.85  
Year to date precipitation 2.60 2.02  
Snow  
Snow 0.10 in 0.30 in - ()
Month to date snowfall 4.3 6.2  
Since 1 July snowfall 30.1 30.8  
Snow Depth T in    
Sea Level Pressure  
Sea Level Pressure 29.61 in    
Wind  
Wind Speed 18 mph (West)    
Max Wind Speed 29 mph    
Max Gust Speed 37 mph    
Visibility 8 miles    
Events Rain , Snow    
T = Trace of Precipitation, MM = Missing Value Source: NWS Daily Summary

Daily Weather History Graph

Daily Weather History Graph

Search for Another Location

Airport:

Trip Planner

Search our weather history database for the weather conditions in past years. The results will help you decide how hot, cold, wet, or windy it might be!

Date:

Astronomy

Feb. 18, 2013 Rise Set
Actual Time 6:54 AM CST 5:39 PM CST
Civil Twilight 6:26 AM CST 6:07 PM CST
Nautical Twilight 5:53 AM CST 6:40 PM CST
Astronomical Twilight 5:20 AM CST 7:13 PM CST
Moon 11:21 AM CST (2/18) 1:37 AM CST (2/18)
Length of Visible Light 11h 41m
Length of Day
10h 44m
First Quarter, 58% of the Moon is Illuminated
Feb 18
First Quarter
Feb 25
Full
Mar 4
Last Quarter
Mar 11
New
Mar 19
First Quarter

Hourly Weather History & Observations

Time (CST) Temp. Windchill Dew Point Humidity Pressure Visibility Wind Dir Wind Speed Gust Speed Precip Events Conditions
12:53 AM 28.9 °F 16.1 °F 21.9 °F 75% 29.80 in 10.0 mi SSE 19.6 mph - N/A   Clear
1:53 AM 28.0 °F 14.6 °F 23.0 °F 81% 29.76 in 10.0 mi SSE 20.7 mph 29.9 mph N/A   Clear
2:53 AM 28.9 °F 16.9 °F 23.0 °F 78% 29.73 in 10.0 mi SSE 17.3 mph - N/A   Clear
3:53 AM 28.9 °F 17.7 °F 24.1 °F 82% 29.70 in 10.0 mi South 15.0 mph - N/A   Clear
4:53 AM 28.9 °F 16.5 °F 24.1 °F 82% 29.67 in 10.0 mi South 18.4 mph - N/A   Clear
5:53 AM 30.0 °F 17.9 °F 25.0 °F 82% 29.65 in 10.0 mi South 18.4 mph 26.5 mph N/A   Clear
6:53 AM 30.0 °F 18.7 °F 26.1 °F 85% 29.65 in 10.0 mi South 16.1 mph - N/A   Clear
7:53 AM 30.2 °F 19.8 °F 26.6 °F 86% 29.60 in 10.0 mi South 13.8 mph - N/A   Clear
8:53 AM 33.1 °F 21.5 °F 28.0 °F 82% 29.61 in 10.0 mi South 19.6 mph - N/A   Clear
9:53 AM 36.0 °F 26.3 °F 30.0 °F 79% 29.60 in 10.0 mi South 16.1 mph - N/A   Clear
10:53 AM 43.0 °F - 33.1 °F 68% 29.58 in 10.0 mi North - - N/A   Clear
11:53 AM 46.9 °F - 35.1 °F 63% 29.57 in 10.0 mi SSW 15.0 mph - N/A   Clear
12:53 PM 46.9 °F - 36.0 °F 66% 29.54 in 10.0 mi WSW 16.1 mph - N/A   Overcast
1:53 PM 44.1 °F 39.5 °F 36.0 °F 73% 29.53 in 10.0 mi WSW 8.1 mph - N/A   Overcast
2:53 PM 39.9 °F 31.4 °F 35.1 °F 83% 29.54 in 10.0 mi WNW 16.1 mph - 0.00 in Rain Light Rain
3:53 PM 37.0 °F 28.5 °F 32.0 °F 82% 29.55 in 10.0 mi WNW 13.8 mph - N/A   Overcast
4:19 PM 35.6 °F - 33.8 °F 93% 29.53 in 5.0 mi North - - 0.00 in   Overcast
4:30 PM 35.6 °F - 33.8 °F 93% 29.53 in 4.0 mi North - - 0.00 in   Overcast
4:41 PM 33.8 °F 24.3 °F 33.8 °F 100% 29.53 in 1.5 mi NW 13.8 mph - 0.01 in Snow Light Snow
4:53 PM 33.1 °F 24.9 °F 33.1 °F 100% 29.56 in 1.5 mi NW 10.4 mph - 0.01 in Snow Light Snow
5:53 PM 30.9 °F 19.4 °F 30.0 °F 96% 29.57 in 1.2 mi NW 17.3 mph - 0.02 in Snow Light Snow
6:01 PM 30.2 °F 17.8 °F 28.4 °F 93% 29.55 in 3.0 mi NW 19.6 mph 27.6 mph 0.01 in Snow Light Snow
6:30 PM 28.4 °F 14.7 °F 26.6 °F 93% 29.56 in 2.5 mi NW 21.9 mph 28.8 mph 0.01 in Snow Light Snow
6:37 PM 28.4 °F 14.7 °F 26.6 °F 93% 29.56 in 4.0 mi NW 21.9 mph 28.8 mph 0.01 in Snow Light Snow
6:45 PM 28.4 °F 14.7 °F 26.6 °F 93% 29.56 in 7.0 mi WNW 21.9 mph 26.5 mph 0.01 in   Overcast
6:53 PM 28.0 °F 13.0 °F 24.1 °F 85% 29.60 in 10.0 mi NW 26.5 mph 33.4 mph 0.01 in   Overcast
7:24 PM 26.6 °F 12.0 °F 21.2 °F 80% 29.58 in 10.0 mi NW 23.0 mph 31.1 mph N/A   Overcast
7:53 PM 25.0 °F 9.2 °F 21.0 °F 85% 29.63 in 10.0 mi NW 25.3 mph 31.1 mph N/A   Overcast
8:15 PM 24.8 °F 10.0 °F 19.4 °F 80% 29.60 in 10.0 mi NW 21.9 mph 29.9 mph N/A   Overcast
8:53 PM 21.0 °F 4.3 °F 17.1 °F 85% 29.65 in 10.0 mi NW 24.2 mph 33.4 mph N/A   Overcast
9:53 PM 19.0 °F 1.6 °F 12.9 °F 77% 29.68 in 10.0 mi WNW 24.2 mph 35.7 mph N/A   Overcast
10:53 PM 17.1 °F -1.0 °F 12.0 °F 81% 29.71 in 8.0 mi WNW 24.2 mph 32.2 mph 0.00 in   Overcast
11:53 PM 14.0 °F -3.9 °F 9.0 °F 80% 29.73 in 5.0 mi WNW 20.7 mph 29.9 mph 0.00 in Snow Light Snow